1485183600.77,12156,11.81,73608.3,-5.73,-40.91,-41.11,0,*59
1485183602.06,12157,11.81,73608.5,-5.73,-40.85,-40.85,0,*51
1485183603.32,12158,11.81,73608.8,-5.71,-40.85,-40.85,0,*5C
1485183604.56,12159,11.81,73606.0,-5.73,-40.91,-41.03,0,*55
1485183605.8,12160,11.81,73610.8,-5.75,-40.85,-41.03,0,*5C
1485183607.07,12161,11.81,73610.0,-5.73,-40.91,-40.85,0,*51
1485183608.31,12162,11.81,73606.8,-5.73,-40.91,-40.91,0,*57
1485183609.55,12163,11.81,73606.5,-5.73,-40.91,-40.91,0,*56
1485183610.82,12164,11.81,73608.0,-5.71,-40.85,-40.97,0,*50
1485183612.08,12165,11.81,73608.5,-5.73,-40.85,-40.91,0,*55
1485183613.32,12166,11.81,73606.0,-5.73,-40.91,-41.11,0,*5A
1485183614.55,12167,11.81,73608.5,-5.73,-41.11,-41.11,0,*52
1485183615.79,12168,11.81,73608.5,-5.73,-41.03,-41.29,0,*55
1485183617.03,12169,11.81,73610.0,-5.73,-41.03,-41.11,0,*5F
1485183618.27,12170,11.81,73610.0,-5.73,-41.03,-41.11,0,*57
1485183619.51,12171,11.81,73610.8,-5.73,-40.91,-41.03,0,*5F
1485183620.75,12172,11.81,73608.5,-5.73,-40.91,-41.03,0,*5C
1485183621.97,12173,11.81,73604.8,-5.75,-40.91,-40.91,0,*51
1485183623.21,12174,11.81,73604.3,-5.75,-40.85,-41.03,0,*59
1485183624.42,12175,11.81,73606.0,-5.75,-40.91,-40.91,0,*57
1485183625.67,12176,11.81,73606.5,-5.73,-40.91,-41.03,0,*58
1485183626.93,12177,11.81,73608.3,-5.73,-40.85,-40.91,0,*56
1485183628.17,12178,11.81,73608.0,-5.73,-40.91,-41.03,0,*56
1485183629.39,12179,11.81,73606.3,-5.75,-41.03,-41.03,0,*5B
1485183630.61,12180,11.81,73606.0,-5.75,-41.03,-41.03,0,*5D
1485183631.85,12181,11.81,73610.0,-5.75,-40.91,-40.85,0,*59
1485183633.09,12182,11.81,73608.5,-5.73,-40.91,-41.11,0,*50
1485183634.3,12183,11.81,73608.5,-5.75,-40.91,-41.11,0,*57
1485183635.52,12184,11.81,73610.3,-5.75,-41.03,-41.11,0,*5A
1485183636.73,12185,11.81,73606.5,-5.75,-41.11,-41.29,0,*53
1485183637.97,12186,11.81,73608.0,-5.75,-41.03,-41.23,0,*59
1485183639.18,12187,11.81,73610.3,-5.75,-41.03,-41.03,0,*5A
1485183640.47,12188,11.81,73604.0,-5.73,-40.85,-40.85,0,*53
1485183641.73,12189,11.81,73606.0,-5.75,-40.85,-40.85,0,*54
1485183642.96,12190,11.81,73606.0,-5.75,-40.85,-40.73,0,*55
1485183644.17,12191,11.81,73606.3,-5.75,-40.73,-40.73,0,*5D
1485183645.37,12192,11.81,73604.3,-5.75,-40.73,-40.73,0,*5E
1485183646.63,12193,11.81,73604.0,-5.73,-40.73,-40.85,0,*50
1485183647.83,12194,11.81,73606.5,-5.75,-40.65,-40.73,0,*5F
1485183649.04,12195,11.81,73604.0,-5.75,-40.73,-40.91,0,*55
1485183650.25,12196,11.81,73608.3,-5.75,-40.65,-40.73,0,*5D
1485183651.48,12197,11.81,73610.5,-5.75,-40.85,-40.91,0,*5E
1485183652.75,12198,11.81,73604.0,-5.73,-40.85,-41.03,0,*5D
1485183653.96,12199,11.81,73608.5,-5.75,-40.91,-41.03,0,*5F
1485183655.2,12200,11.81,73604.5,-5.75,-40.85,-41.03,0,*59
1485183656.42,12201,11.81,73606.3,-5.75,-41.03,-41.11,0,*54
1485183657.64,12202,11.81,73604.5,-5.75,-40.91,-40.91,0,*54
1485183658.86,12203,11.81,73606.3,-5.75,-40.91,-40.91,0,*55
1485183660.07,12204,11.81,73606.3,-5.75,-40.91,-41.03,0,*58
1485183661.29,12205,11.81,73608.3,-5.75,-41.03,-41.11,0,*50
1485183662.52,12206,11.81,73606.5,-5.77,-41.11,-41.11,0,*52
1485183663.79,12207,11.81,73610.3,-5.77,-40.91,-40.97,0,*55
1485183665.03,12208,11.81,73608.3,-5.79,-40.97,-40.91,0,*54
1485183666.29,12209,11.81,73606.0,-5.77,-40.79,-40.91,0,*5B
1485183667.52,12210,11.81,73610.5,-5.79,-40.59,-40.73,0,*53
1485183668.79,12211,11.81,73606.0,-5.77,-40.79,-40.79,0,*54
1485183670.05,12212,11.81,73608.0,-5.77,-40.79,-40.91,0,*51
1485183671.28,12213,11.81,73608.3,-5.79,-40.73,-40.79,0,*52
1485183672.53,12214,11.81,73610.3,-5.77,-40.79,-40.73,0,*5B
1485183673.79,12215,11.81,73610.3,-5.77,-40.79,-40.91,0,*56
1485183675.06,12216,11.81,73610.3,-5.77,-40.79,-40.79,0,*53
1485183676.33,12217,11.81,73610.3,-5.77,-40.91,-40.97,0,*54
1485183677.59,12218,11.81,73606.8,-5.77,-40.97,-41.17,0,*54
1485183678.83,12219,11.81,73608.3,-5.79,-40.97,-41.11,0,*5D
1485183680.09,12220,11.81,73608.3,-5.77,-40.91,-40.97,0,*50
1485183681.34,12221,11.81,73606.0,-5.77,-40.91,-40.91,0,*57
1485183682.57,12222,11.81,73608.8,-5.77,-40.73,-40.91,0,*58
1485183683.81,12223,11.81,73608.0,-5.77,-40.73,-40.91,0,*59
1485183685.04,12224,11.81,73604.0,-5.79,-40.79,-40.73,0,*56
1485183686.28,12225,11.81,73604.3,-5.77,-40.91,-40.91,0,*53
1485183687.55,12226,11.81,73604.5,-5.77,-40.91,-40.97,0,*56
1485183688.81,12227,11.81,73604.3,-5.77,-40.91,-40.97,0,*57
1485183690.1,12228,11.81,73606.0,-5.77,-40.79,-40.97,0,*5E
1485183691.34,12229,11.81,73606.0,-5.79,-40.91,-40.97,0,*57
1485183692.61,12230,11.81,73610.8,-5.77,-40.91,-40.97,0,*51
1485183693.85,12231,11.81,73608.0,-5.77,-40.91,-41.11,0,*5F
1485183695.09,12232,11.81,73610.5,-5.79,-40.97,-41.11,0,*54
1485183696.32,12233,11.81,73610.5,-5.79,-40.97,-41.11,0,*55
1485183697.56,12234,11.81,73606.0,-5.79,-40.97,-41.17,0,*54
1485183698.81,12235,11.81,73606.8,-5.77,-40.97,-41.17,0,*5B
1485183700.02,12236,11.81,73608.3,-5.79,-41.17,-41.29,0,*52
1485183701.23,12237,11.81,73610.0,-5.79,-41.11,-41.17,0,*58
1485183702.46,12238,11.81,73606.8,-5.77,-41.11,-41.17,0,*59
1485183703.67,12239,11.81,73606.3,-5.79,-41.11,-41.11,0,*50
1485183704.89,12240,11.81,73608.0,-5.79,-40.91,-41.11,0,*57
1485183706.12,12241,11.81,73610.0,-5.79,-40.79,-40.91,0,*59
1485183707.38,12242,11.81,73606.5,-5.79,-40.79,-40.97,0,*5C
1485183708.65,12243,11.81,73604.5,-5.79,-40.97,-40.97,0,*5D
1485183709.86,12244,11.81,73608.0,-5.83,-41.03,-41.17,0,*5A
1485183711.07,12245,11.81,73604.8,-5.83,-41.03,-41.17,0,*5B
1485183712.3,12246,11.81,73608.5,-5.83,-41.17,-41.35,0,*5D
1485183713.56,12247,11.81,73608.0,-5.83,-41.23,-41.35,0,*5B
1485183714.79,12248,11.81,73608.3,-5.83,-41.17,-41.35,0,*53
1485183716.0,12249,11.81,73606.8,-5.83,-41.03,-41.17,0,*57
1485183717.24,12250,11.81,73608.5,-5.83,-40.97,-41.03,0,*56
1485183718.48,12251,11.81,73606.5,-5.83,-40.97,-41.03,0,*57
1485183719.73,12252,11.81,73606.3,-5.85,-40.97,-41.17,0,*57
1485183720.97,12253,11.81,73608.8,-5.83,-40.97,-41.03,0,*55
1485183722.21,12254,11.81,73608.3,-5.83,-40.79,-40.79,0,*5E
1485183723.46,12255,11.81,73608.0,-5.83,-40.59,-40.79,0,*5D
1485183724.75,12256,11.81,73606.8,-5.85,-40.85,-40.85,0,*5A
1485183726.0,12257,11.81,73608.3,-5.83,-40.79,-40.97,0,*5D
1485183727.24,12258,11.81,73606.0,-5.85,-41.03,-41.17,0,*51
1485183728.48,12259,11.81,73610.8,-5.83,-41.03,-41.23,0,*51
1485183729.74,12260,11.81,73610.3,-5.85,-41.03,-41.23,0,*5D
1485183731.0,12261,11.81,73610.0,-5.85,-40.97,-41.03,0,*52
1485183732.28,12262,11.81,73604.8,-5.85,-40.85,-40.97,0,*5E
1485183733.55,12263,11.81,73608.8,-5.83,-40.85,-40.97,0,*59
1485183734.8,12264,11.81,73606.8,-5.85,-40.85,-41.03,0,*54
1485183736.07,12265,11.81,73608.5,-5.83,-40.97,-40.97,0,*5C
1485183737.32,12266,11.81,73608.0,-5.85,-40.97,-41.17,0,*50
1485183738.58,12267,11.81,73604.3,-5.85,-40.97,-41.03,0,*54
1485183739.82,12268,11.81,73608.3,-5.85,-41.03,-41.17,0,*52
1485183741.08,12269,11.81,73606.8,-5.85,-41.03,-41.23,0,*54
1485183742.34,12270,11.81,73604.8,-5.85,-41.23,-41.17,0,*59
1485183743.6,12271,11.81,73608.0,-5.87,-41.23,-41.23,0,*5D
1485183744.81,12272,11.81,73606.8,-5.87,-41.11,-41.29,0,*55
1485183746.07,12273,11.81,73610.0,-5.87,-41.23,-41.23,0,*5F
1485183747.31,12274,11.81,73608.3,-5.87,-41.23,-41.29,0,*52
1485183748.55,12275,11.81,73606.8,-5.87,-41.03,-41.23,0,*5B
1485183749.79,12276,11.81,73604.0,-5.87,-40.85,-41.03,0,*55
1485183751.03,12277,11.88,73610.5,-5.89,-41.03,-41.03,0,*55
1485183752.27,12278,11.81,73606.5,-5.89,-41.03,-41.03,0,*5A
1485183753.52,12279,11.81,73604.3,-5.89,-41.03,-41.03,0,*5B
1485183754.76,12280,11.81,73606.3,-5.89,-40.91,-41.03,0,*57
1485183755.98,12281,11.81,73606.0,-5.87,-41.03,-41.03,0,*52
1485183757.2,12282,11.81,73606.3,-5.87,-41.03,-41.03,0,*51
1485183758.41,12283,11.81,73608.0,-5.87,-41.03,-41.11,0,*53
1485183759.64,12284,11.81,73604.3,-5.89,-41.11,-41.11,0,*59
1485183760.86,12285,11.88,73610.5,-5.87,-41.03,-41.03,0,*56
1485183762.1,12286,11.81,73606.8,-5.89,-41.03,-41.11,0,*58
1485183763.37,12287,11.81,73608.3,-5.89,-41.03,-41.23,0,*58
1485183764.6,12288,11.81,73604.5,-5.89,-41.11,-41.29,0,*5E
1485183765.83,12289,11.81,73606.3,-5.89,-41.11,-41.41,0,*51
1485183767.03,12290,11.88,73610.5,-5.87,-41.11,-41.49,0,*5F
1485183768.29,12291,11.88,73608.0,-5.89,-41.23,-41.49,0,*51
1485183769.49,12292,11.81,73606.3,-5.91,-41.29,-41.49,0,*51
1485183770.72,12293,11.81,73608.8,-5.91,-41.29,-41.35,0,*5B
1485183771.96,12294,11.81,73606.5,-5.91,-41.29,-41.55,0,*5A
1485183773.16,12295,11.81,73606.8,-5.91,-41.29,-41.49,0,*56
1485183774.36,12296,11.81,73608.0,-5.91,-41.17,-41.29,0,*5E
1485183775.57,12297,11.81,73608.3,-5.91,-41.17,-41.29,0,*5F
1485183776.78,12298,11.81,73606.5,-5.91,-41.17,-41.29,0,*50
1485183777.99,12299,11.81,73604.8,-5.91,-41.11,-41.17,0,*5A
1485183779.28,12300,11.81,73606.3,-5.93,-41.23,-41.23,0,*5F
1485183780.51,12301,11.81,73606.5,-5.91,-40.97,-41.17,0,*55
1485183781.78,12302,11.81,73606.5,-5.93,-41.17,-41.35,0,*5D
1485183782.98,12303,11.88,73608.5,-5.91,-41.11,-41.29,0,*55
1485183784.22,12304,11.81,73606.3,-5.93,-41.03,-41.17,0,*5E
1485183785.46,12305,11.81,73606.5,-5.91,-40.97,-41.17,0,*51
1485183786.67,12306,11.81,73604.0,-5.91,-41.11,-41.29,0,*50
1485183787.9,12307,11.81,73606.5,-5.91,-41.11,-41.23,0,*5B
1485183789.11,12308,11.81,73604.5,-5.91,-41.17,-41.29,0,*58
1485183790.4,12309,11.88,73608.3,-5.93,-41.23,-41.35,0,*51
1485183791.69,12310,11.81,73604.8,-5.93,-41.23,-41.35,0,*59
1485183792.95,12311,11.81,73608.0,-5.93,-41.17,-41.23,0,*58
1485183794.24,12312,11.81,73608.3,-5.93,-41.23,-41.23,0,*5C
1485183795.48,12313,11.88,73610.0,-5.93,-41.03,-41.17,0,*58
1485183796.72,12314,11.81,73606.3,-5.93,-41.17,-41.17,0,*5A
1485183798.01,12315,11.81,73610.0,-5.93,-41.23,-41.23,0,*5B
1485183799.25,12316,11.81,73604.3,-5.93,-41.03,-41.17,0,*5D
1485183800.46,12317,11.88,73610.0,-5.91,-41.11,-41.17,0,*5D
1485183801.72,12318,11.88,73610.3,-5.93,-41.17,-41.23,0,*51
1485183802.96,12319,11.81,73604.8,-5.95,-41.23,-41.41,0,*55
1485183804.23,12320,11.81,73604.8,-5.95,-41.23,-41.23,0,*5B
1485183805.44,12321,11.88,73606.8,-5.95,-41.17,-41.17,0,*5A
1485183806.68,12322,11.81,73604.5,-5.95,-41.17,-41.23,0,*5E
1485183807.88,12323,11.81,73608.0,-5.97,-41.17,-41.17,0,*5A
1485183809.12,12324,11.81,73600.8,-5.95,-41.17,-41.23,0,*58
1485183810.36,12325,11.88,73608.5,-5.97,-41.03,-41.23,0,*5E
1485183811.62,12326,11.88,73608.3,-5.97,-41.23,-41.35,0,*58
1485183812.83,12327,11.88,73608.0,-5.95,-41.17,-41.17,0,*5C
1485183814.1,12328,11.81,73608.0,-5.95,-40.97,-40.97,0,*53
1485183815.32,12329,11.81,73606.3,-5.97,-40.97,-41.17,0,*59
1485183816.55,12330,11.81,73604.0,-5.95,-41.03,-41.03,0,*5A
1485183817.78,12331,11.88,73608.0,-5.97,-40.97,-41.17,0,*50
1485183818.98,12332,11.81,73606.8,-5.97,-41.17,-41.17,0,*5A
1485183820.21,12333,11.81,73604.8,-5.97,-40.97,-41.17,0,*52
1485183821.44,12334,11.81,73606.0,-5.97,-40.97,-41.03,0,*50
1485183822.67,12335,11.81,73606.5,-5.97,-40.97,-41.17,0,*54
1485183823.93,12336,11.81,73604.8,-5.97,-40.79,-40.97,0,*5E
1485183825.18,12337,11.88,73606.0,-5.97,-40.41,-40.79,0,*54
1485183826.41,12338,11.88,73608.0,-5.97,-40.41,-40.65,0,*56
1485183827.63,12339,11.81,73604.3,-5.97,-40.65,-40.79,0,*5C
1485183828.88,12340,11.81,73606.8,-5.95,-40.79,-40.79,0,*5D
1485183830.14,12341,11.88,73608.0,-5.97,-40.85,-40.97,0,*5D
1485183831.38,12342,11.81,73606.0,-5.97,-40.85,-41.03,0,*52
1485183832.64,12343,11.88,73608.8,-5.97,-40.97,-40.97,0,*5C
1485183833.88,12344,11.81,73604.0,-5.97,-40.79,-40.79,0,*5B
1485183835.11,12345,11.81,73606.0,-5.97,-40.65,-40.85,0,*54
1485183836.36,12346,11.81,73604.0,-5.97,-40.59,-40.85,0,*58
1485183837.58,12347,11.81,73604.0,-5.97,-40.65,-40.79,0,*55
1485183838.83,12348,11.81,73606.5,-5.97,-40.59,-40.79,0,*55
1485183840.06,12349,11.81,73606.8,-5.95,-40.65,-40.79,0,*59
1485183841.28,12350,11.88,73606.3,-5.97,-40.65,-40.79,0,*53
1485183842.48,12351,11.88,73608.8,-5.95,-40.53,-40.65,0,*58
1485183843.71,12352,11.81,73606.3,-5.97,-40.41,-40.65,0,*5A
1485183844.91,12353,11.88,73606.3,-5.97,-40.65,-40.65,0,*5D
1485183846.13,12354,11.81,73606.3,-5.97,-40.59,-40.65,0,*55
1485183847.36,12355,11.88,73610.0,-5.97,-40.59,-40.65,0,*54
1485183848.55,12356,11.81,73604.8,-5.97,-40.65,-40.65,0,*58
1485183849.78,12357,11.81,73606.8,-5.97,-40.65,-40.85,0,*57
1485183851.04,12358,11.88,73606.3,-5.95,-40.59,-40.79,0,*56
1485183852.25,12359,11.81,73604.0,-5.97,-40.65,-40.79,0,*5A
1485183853.49,12360,11.88,73606.0,-5.97,-40.41,-40.65,0,*5B
1485183854.71,12361,11.81,73606.0,-5.97,-40.53,-40.59,0,*56
1485183855.96,12362,11.81,73604.5,-5.97,-40.59,-40.79,0,*5D
1485183857.18,12363,11.88,73606.5,-5.97,-40.65,-40.79,0,*53
1485183858.45,12364,11.88,73606.0,-5.95,-40.41,-40.59,0,*52
1485183859.64,12365,11.88,73604.3,-5.97,-40.65,-40.65,0,*58
1485183860.85,12366,11.88,73604.5,-5.95,-40.65,-40.65,0,*59
1485183862.1,12367,11.88,73608.3,-5.95,-40.59,-40.79,0,*5A
1485183863.3,12368,11.88,73608.0,-5.97,-40.53,-40.65,0,*50
1485183864.52,12369,11.88,73606.0,-5.97,-40.65,-40.85,0,*5A
1485183865.79,12370,11.88,73606.8,-5.95,-40.85,-40.97,0,*5D
1485183867.05,12371,11.81,73606.5,-5.97,-40.97,-40.97,0,*5D
1485183868.31,12372,11.81,73606.5,-5.95,-40.79,-40.79,0,*5C
1485183869.55,12373,11.81,73604.5,-5.95,-40.97,-41.03,0,*51
1485183870.81,12374,11.81,73604.8,-5.97,-40.85,-40.97,0,*5B
1485183872.07,12375,11.88,73608.5,-5.97,-40.85,-40.85,0,*59
1485183873.3,12376,11.88,73606.8,-5.97,-40.85,-41.03,0,*55
1485183874.56,12377,11.81,73606.8,-5.97,-40.79,-40.97,0,*5B
1485183875.81,12378,11.81,73604.3,-5.97,-40.85,-40.85,0,*54
1485183877.05,12379,11.88,73608.8,-5.97,-40.97,-41.03,0,*59
1485183878.28,12380,11.88,73608.8,-5.97,-40.97,-41.03,0,*5F
1485183879.54,12381,11.81,73606.8,-5.97,-40.79,-40.97,0,*52
1485183880.8,12382,11.81,73606.3,-5.99,-40.85,-40.91,0,*5A
1485183882.05,12383,11.88,73610.0,-5.99,-40.85,-40.91,0,*5B
1485183883.29,12384,11.88,73610.8,-5.99,-40.91,-41.11,0,*50
1485183884.54,12385,11.88,73608.3,-5.97,-40.79,-40.85,0,*55
1485183885.8,12386,11.88,73606.0,-5.97,-40.85,-40.97,0,*56
1485183887.03,12387,11.88,73610.0,-5.99,-40.91,-41.11,0,*53
1485183888.27,12388,11.88,73608.5,-5.99,-41.03,-41.11,0,*56
1485183889.5,12389,11.88,73608.0,-6.01,-40.85,-41.03,0,*59
1485183890.71,12390,11.81,73604.0,-6.01,-41.03,-41.29,0,*56
1485183891.91,12391,11.88,73606.8,-6.01,-41.11,-41.29,0,*54
1485183893.15,12392,11.88,73608.3,-6.01,-41.23,-41.29,0,*56
1485183894.37,12393,11.81,73604.3,-5.99,-41.29,-41.29,0,*5F
1485183895.63,12394,11.88,73608.8,-5.99,-41.23,-41.29,0,*52
1485183896.86,12395,11.88,73608.5,-6.01,-41.23,-41.29,0,*51
1485183898.12,12396,11.88,73606.0,-6.01,-41.23,-41.23,0,*58
1485183899.33,12397,11.81,73606.0,-6.01,-41.03,-41.29,0,*51
1485183900.56,12398,11.88,73610.3,-6.01,-41.11,-41.23,0,*57
1485183901.77,12399,11.88,73606.8,-6.05,-41.17,-41.29,0,*5E
1485183903.03,12400,11.81,73604.0,-6.07,-41.17,-41.35,0,*56
1485183904.26,12401,11.88,73608.5,-6.05,-40.97,-41.17,0,*5C
1485183905.46,12402,11.88,73610.0,-6.05,-41.11,-41.29,0,*5D
1485183906.7,12403,11.81,73604.0,-6.05,-41.17,-41.35,0,*57
1485183907.9,12404,11.88,73606.3,-6.05,-41.29,-41.29,0,*50
1485183909.16,12405,11.88,73610.3,-6.07,-41.23,-41.29,0,*59
1485183910.37,12406,11.88,73610.0,-6.05,-41.11,-41.29,0,*59
1485183911.66,12407,11.88,73608.3,-6.07,-41.23,-41.35,0,*56
1485183912.87,12408,11.88,73610.5,-6.05,-41.11,-41.17,0,*5A
1485183914.16,12409,11.88,73610.0,-6.07,-41.23,-41.35,0,*58
1485183915.36,12410,11.88,73610.5,-6.05,-41.17,-41.29,0,*58
1485183916.62,12411,11.81,73606.8,-6.07,-41.23,-41.41,0,*52
1485183917.89,12412,11.88,73606.5,-6.07,-41.03,-41.23,0,*57
1485183919.15,12413,11.88,73606.8,-6.07,-40.85,-41.03,0,*5B
1485183920.42,12414,11.81,73604.0,-6.07,-40.97,-41.03,0,*5F
1485183921.68,12415,11.88,73608.3,-6.07,-41.03,-41.35,0,*57
1485183922.95,12416,11.88,73604.8,-6.07,-41.03,-41.23,0,*53
1485183924.16,12417,11.88,73610.0,-6.09,-41.03,-41.17,0,*5B
1485183925.45,12418,11.88,73606.0,-6.07,-40.85,-40.97,0,*5C
1485183926.71,12419,11.88,73610.5,-6.09,-40.79,-40.97,0,*50
1485183927.95,12420,11.88,73606.8,-6.09,-40.79,-41.03,0,*56
1485183929.18,12421,11.88,73606.0,-6.09,-40.97,-41.17,0,*52
1485183930.42,12422,11.81,73606.3,-6.09,-40.85,-41.03,0,*57
1485183931.65,12423,11.88,73606.3,-6.09,-40.97,-41.03,0,*55
1485183932.87,12424,11.88,73606.8,-6.09,-41.03,-41.17,0,*5B
1485183934.1,12425,11.88,73606.0,-6.09,-41.23,-41.17,0,*58
1485183935.34,12426,11.88,73608.8,-6.09,-41.03,-41.23,0,*5E
1485183936.61,12427,11.88,73606.5,-6.11,-41.03,-41.23,0,*56
1485183937.87,12428,11.88,73608.5,-6.09,-40.85,-40.97,0,*51
1485183939.11,12429,11.88,73608.0,-6.09,-40.79,-41.03,0,*5F
1485183940.35,12430,11.88,73606.8,-6.11,-40.91,-41.11,0,*5B
1485183941.59,12431,11.88,73606.5,-6.07,-41.03,-41.03,0,*54
1485183942.83,12432,11.88,73610.5,-6.09,-40.97,-41.03,0,*55
1485183944.07,12433,11.88,73612.0,-6.11,-41.03,-41.11,0,*52
1485183945.31,12434,11.88,73608.3,-6.11,-41.03,-41.11,0,*55
1485183946.58,12435,11.88,73610.0,-6.11,-40.91,-41.23,0,*5F
1485183947.81,12436,11.88,73608.0,-6.11,-41.11,-41.29,0,*5F
1485183949.05,12437,11.88,73608.3,-6.11,-41.03,-41.17,0,*50
1485183950.28,12438,11.88,73608.8,-6.11,-41.11,-41.29,0,*51
1485183951.55,12439,11.88,73610.3,-6.11,-41.23,-41.29,0,*51
1485183952.78,12440,11.81,73604.5,-6.11,-41.29,-41.29,0,*55
1485183954.04,12441,11.88,73610.3,-6.11,-41.23,-41.29,0,*5E
1485183955.3,12442,11.88,73610.5,-6.09,-41.23,-41.35,0,*59
1485183956.53,12443,11.88,73606.8,-6.11,-41.29,-41.29,0,*56
1485183957.79,12444,11.88,73608.8,-6.11,-41.11,-41.23,0,*50
1485183959.06,12445,11.81,73604.0,-6.11,-40.59,-40.91,0,*54
1485183960.32,12446,11.88,73608.0,-6.11,-40.85,-41.03,0,*5C
1485183961.59,12447,11.88,73606.5,-6.11,-40.85,-40.91,0,*57
1485183962.82,12448,11.88,73608.5,-6.13,-40.79,-40.91,0,*59
1485183964.06,12449,11.88,73606.5,-6.11,-41.03,-41.11,0,*5F
1485183965.3,12450,11.88,73608.8,-6.11,-41.03,-41.11,0,*57
1485183966.56,12451,11.88,73604.3,-6.11,-41.11,-41.23,0,*54
1485183967.78,12452,11.81,73602.8,-6.13,-40.91,-41.03,0,*5E
1485183969.02,12453,11.88,73604.8,-6.13,-40.65,-40.85,0,*5B
1485183970.28,12454,11.88,73606.5,-6.11,-40.79,-40.91,0,*56
1485183971.54,12455,11.81,73602.5,-6.11,-40.79,-41.03,0,*5D
1485183972.78,12456,11.88,73606.0,-6.11,-41.03,-41.03,0,*52
1485183974.05,12457,11.88,73606.5,-6.11,-40.85,-41.03,0,*5C
1485183975.31,12458,11.88,73606.8,-6.11,-40.85,-41.03,0,*53
1485183976.56,12459,11.81,73604.0,-6.11,-40.91,-41.03,0,*57
1485183977.82,12460,11.88,73608.0,-6.11,-40.85,-41.03,0,*58
1485183979.06,12461,11.88,73604.8,-6.09,-40.97,-41.03,0,*53
1485183980.32,12462,11.88,73608.0,-6.11,-41.03,-41.23,0,*57
1485183981.57,12463,11.88,73606.8,-6.11,-40.91,-41.03,0,*5E
1485183982.81,12464,11.88,73610.8,-6.11,-40.91,-41.03,0,*59
1485183984.06,12465,11.88,73604.5,-6.11,-40.91,-41.03,0,*58
1485183985.3,12466,11.88,73604.0,-6.13,-40.85,-41.03,0,*5C
1485183986.53,12467,11.88,73610.0,-6.13,-40.85,-41.11,0,*5E
1485183987.78,12468,11.88,73610.3,-6.13,-41.03,-41.23,0,*5F
1485183989.01,12469,11.88,73604.8,-6.11,-41.03,-41.29,0,*56
1485183990.28,12470,11.88,73606.8,-6.11,-40.85,-41.03,0,*59
1485183991.54,12471,11.88,73610.0,-6.13,-40.79,-40.85,0,*56
1485183992.77,12472,11.88,73606.0,-6.13,-40.79,-40.91,0,*50
1485183993.99,12473,11.88,73606.3,-6.13,-40.91,-40.91,0,*57
1485183995.22,12474,11.88,73606.5,-6.13,-40.91,-41.03,0,*5A
1485183996.46,12475,11.88,73606.8,-6.13,-40.85,-41.03,0,*5E
1485183997.67,12476,11.88,73606.3,-6.13,-41.03,-41.11,0,*51
1485183998.89,12477,11.88,73606.8,-6.13,-40.91,-41.03,0,*59
1485184000.13,12478,11.88,73608.5,-6.13,-40.65,-40.85,0,*52
1485184001.36,12479,11.88,73604.0,-6.13,-40.65,-40.85,0,*53
1485184002.62,12480,11.88,73606.0,-6.13,-40.79,-40.85,0,*58
1485184003.85,12481,11.88,73606.5,-6.13,-40.65,-40.85,0,*54
1485184005.09,12482,11.88,73606.5,-6.13,-40.79,-40.91,0,*5F
1485184006.3,12483,11.88,73606.5,-6.13,-40.65,-40.91,0,*53
1485184007.53,12484,11.88,73606.8,-6.13,-40.79,-40.91,0,*59
1485184008.77,12485,11.88,73608.0,-6.13,-40.85,-40.91,0,*5B
1485184010.01,12486,11.88,73610.5,-6.13,-40.85,-40.91,0,*58
1485184011.23,12487,11.88,73606.8,-6.13,-40.91,-41.11,0,*55
1485184012.46,12488,11.88,73606.5,-6.13,-40.79,-41.03,0,*5F
1485184013.71,12489,11.88,73606.8,-6.13,-40.85,-41.03,0,*5D
1485184014.93,12490,11.88,73606.8,-6.13,-40.91,-41.03,0,*50
1485184016.16,12491,11.88,73606.0,-6.13,-40.85,-41.03,0,*54
1485184017.41,12492,11.88,73606.0,-6.13,-40.85,-41.03,0,*57
1485184018.62,12493,11.88,73610.3,-6.13,-40.91,-41.11,0,*50
1485184019.84,12494,11.88,73606.5,-6.13,-41.03,-41.11,0,*5D
1485184021.06,12495,11.88,73604.5,-6.13,-41.03,-41.11,0,*5C
1485184022.29,12496,11.88,73604.8,-6.13,-40.85,-41.11,0,*50
1485184023.53,12497,11.88,73604.3,-6.13,-40.85,-41.03,0,*52
1485184024.77,12498,11.81,73600.8,-6.13,-40.85,-41.11,0,*5E
1485184026.01,12499,11.88,73610.0,-6.13,-40.85,-41.03,0,*5C
1485184027.24,12500,11.88,73606.0,-6.13,-40.65,-40.85,0,*5C
1485184028.48,12501,11.88,73610.8,-6.13,-40.79,-40.91,0,*55
1485184029.72,12502,11.88,73604.8,-6.13,-40.91,-41.23,0,*58
1485184030.96,12503,11.88,73606.5,-6.13,-40.85,-41.03,0,*5E
1485184032.19,12504,11.88,73610.5,-6.13,-40.65,-40.85,0,*58
1485184033.41,12505,11.88,73606.0,-6.13,-40.91,-41.03,0,*5D
1485184034.63,12506,11.88,73606.5,-6.13,-40.91,-41.11,0,*5D
1485184035.87,12507,11.88,73608.8,-6.13,-40.85,-41.11,0,*59
1485184037.08,12508,11.88,73604.0,-6.13,-40.65,-40.91,0,*51
1485184038.28,12509,11.88,73606.0,-6.13,-40.65,-40.91,0,*50
1485184039.49,12510,11.88,73608.8,-6.13,-40.65,-40.91,0,*58
1485184040.7,12511,11.88,73604.0,-6.13,-40.65,-40.91,0,*59
1485184041.94,12512,11.88,73608.8,-6.13,-40.79,-40.91,0,*57
1485184043.18,12513,11.88,73608.0,-6.13,-40.85,-41.03,0,*5F
1485184044.41,12514,11.88,73606.8,-6.13,-40.85,-41.11,0,*5B
1485184045.66,12515,11.88,73604.5,-6.13,-41.03,-41.23,0,*54
1485184046.9,12516,11.88,73608.0,-6.13,-41.23,-41.29,0,*5F
1485184048.13,12517,11.88,73608.5,-6.13,-41.23,-41.29,0,*5E
1485184049.37,12518,11.88,73606.5,-6.13,-41.11,-41.23,0,*5A
1485184050.59,12519,11.88,73608.5,-6.13,-41.03,-41.11,0,*59
1485184051.83,12520,11.88,73608.5,-6.13,-40.85,-41.03,0,*5F
1485184053.04,12521,11.88,73606.8,-6.17,-40.91,-41.11,0,*5C
1485184054.28,12522,11.88,73606.5,-6.13,-40.85,-41.11,0,*5E
1485184055.51,12523,11.88,73606.8,-6.17,-40.97,-41.11,0,*58
1485184056.73,12524,11.88,73604.8,-6.17,-40.91,-41.11,0,*59
1485184057.96,12525,11.88,73610.5,-6.17,-40.97,-41.17,0,*58
1485184059.19,12526,11.88,73610.5,-6.17,-40.97,-41.29,0,*56
1485184060.4,12527,11.88,73608.3,-6.17,-41.11,-41.17,0,*55
1485184061.66,12528,11.88,73610.0,-6.19,-41.11,-41.23,0,*53
1485184062.93,12529,11.88,73608.3,-6.19,-41.17,-41.35,0,*53
1485184064.21,12530,11.88,73608.0,-6.19,-40.97,-41.23,0,*55
1485184065.48,12531,11.88,73608.0,-6.19,-40.97,-41.17,0,*53
1485184066.71,12532,11.88,73606.5,-6.17,-40.85,-40.91,0,*52
1485184067.95,12533,11.88,73608.3,-6.17,-40.73,-40.97,0,*5C
1485184069.22,12534,11.88,73608.0,-6.19,-41.17,-41.23,0,*58
1485184070.42,12535,11.88,73606.5,-6.17,-41.17,-41.17,0,*50
1485184071.68,12536,11.88,73608.0,-6.19,-41.17,-41.35,0,*5D
1485184072.95,12537,11.88,73610.5,-6.19,-40.97,-41.17,0,*55
1485184074.16,12538,11.88,73608.8,-6.17,-40.73,-40.91,0,*51
1485184075.45,12539,11.88,73610.0,-6.19,-40.79,-40.97,0,*52
1485184076.7,12540,11.88,73610.5,-6.19,-40.91,-41.03,0,*56
1485184077.91,12541,11.88,73608.3,-6.17,-40.91,-41.11,0,*5A
1485184079.14,12542,11.88,73608.8,-6.17,-40.97,-41.17,0,*59
1485184080.38,12543,11.88,73608.0,-6.17,-40.73,-40.97,0,*5B
1485184081.65,12544,11.88,73610.0,-6.19,-41.03,-41.23,0,*5A
1485184082.91,12545,11.88,73604.5,-6.19,-41.17,-41.23,0,*5E
1485184084.18,12546,11.88,73608.8,-6.19,-41.17,-41.23,0,*5D
1485184085.44,12547,11.88,73606.5,-6.19,-40.97,-41.17,0,*52
1485184086.7,12548,11.88,73606.0,-6.17,-40.85,-40.97,0,*59
1485184087.97,12549,11.88,73610.3,-6.19,-40.79,-41.03,0,*59
1485184089.21,12550,11.88,73608.5,-6.19,-40.91,-41.03,0,*57
1485184090.48,12551,11.88,73606.5,-6.19,-40.97,-41.03,0,*50
1485184091.72,12552,11.88,73606.0,-6.19,-40.91,-41.17,0,*50
1485184093.01,12553,11.88,73608.5,-6.19,-40.97,-41.23,0,*50
1485184094.29,12554,11.88,73606.5,-6.19,-40.91,-40.97,0,*5F
1485184095.51,12555,11.88,73610.5,-6.21,-40.79,-41.17,0,*5A